Wind_Gust
20 19 19 18 18 18 17 17 17 18 18 18 18 18 18 19 18 18 19 19 19 19 18 18 17 17 16 16 16 14 14 6 7 5 5 13 10 8 9 11 9 8 6 3 7 10 7 9 9 10 11 4 8 3 8 4 6 5 8 11 6 11 8 12 13 14 7 9 11 12 6 8 15 20 18 19 24 16 16 20 10 12 16 20 18 26 23 26
20 20 19 19 19 19 18 18 18 18 18 18 18 18 18 18 19 18 18 19 18 18 18 17 17 16 16 14 14 13 11 3 6 6 15 11 8 12 10 9 9 8 7 5 6 4 6 9 5 10 8 5 3 6 3 8 6 9 6 9 16 10 17 9 11 14 8 12 7 9 6 6 9 7 18 18 22 16 25 21 15 8 13 18 16 18 23 22
21 21 21 21 20 19 18 19 19 18 19 19 19 19 19 19 19 19 18 18 18 18 18 18 16 16 15 13 10 9 7 4 4 7 10 9 11 11 11 10 9 7 2 3 2 6 4 6 5 6 7 7 5 9 4 11 7 8 10 9 15 14 8 8 10 13 8 5 10 11 7 5 7 9 9 9 10 10 14 18 10 9 11 19 15 19 19 21
22 22 22 21 21 20 20 20 19 19 19 20 20 20 19 20 20 19 18 18 18 17 16 17 16 14 14 12 9 9 2 3 4 7 7 8 11 11 10 10 9 7 5 3 7 4 4 8 8 7 6 8 9 7 8 13 8 8 8 12 15 11 10 11 7 11 13 7 6 7 9 7 8 6 8 6 15 9 10 9 6 14 17 18 22 22 19 22
23 22 22 22 22 21 21 20 20 20 21 20 20 20 20 20 20 19 18 18 17 17 16 16 14 13 13 10 10 3 4 10 7 4 9 8 11 11 10 10 10 5 3 7 8 6 6 6 5 7 6 7 4 4 7 8 13 8 14 12 12 3 6 13 9 9 7 6 4 5 9 12 4 4 7 5 6 10 7 10 9 15 13 20 16 17 20 22
24 23 23 23 22 22 21 21 21 21 21 22 21 21 20 20 20 20 18 17 17 16 16 14 14 13 10 9 3 2 6 6 6 5 6 11 11 11 11 10 10 7 7 4 5 8 9 10 9 8 6 5 3 6 10 7 9 14 8 8 14 10 12 6 5 6 6 6 6 4 5 8 4 6 5 3 7 9 11 9 8 11 19 16 15 17 19 20
24 25 24 23 23 22 22 22 21 21 21 22 22 22 21 20 20 18 17 16 16 16 15 14 13 13 13 7 2 5 7 16 5 13 6 11 12 12 13 10 10 6 3 4 3 7 3 7 6 4 6 6 5 8 11 7 5 13 14 3 8 8 13 12 10 6 6 8 9 9 3 8 7 6 4 7 10 13 11 7 8 9 11 17 14 13 16 16
25 25 25 24 23 23 23 22 22 21 22 22 22 21 21 21 20 18 17 17 16 16 14 13 11 10 11 2 3 6 3 12 16 7 11 12 12 12 13 7 7 5 3 6 4 6 3 7 5 5 8 6 5 6 5 8 4 7 7 3 6 5 8 8 10 8 9 10 8 5 6 8 7 7 3 7 11 11 9 9 7 13 17 17 17 21 19 13
26 26 26 25 24 24 24 23 23 22 22 22 22 22 22 21 18 17 17 17 16 15 14 11 10 6 4 3 6 8 8 10 9 11 12 12 12 11 12 7 8 5 4 4 5 8 4 7 4 6 4 6 4 9 11 7 9 6 6 4 6 7 6 8 6 10 10 10 7 11 10 10 9 7 5 9 8 8 8 9 14 19 19 16 13 12 18 20
27 27 26 26 26 25 25 24 24 23 23 22 23 23 22 20 19 16 17 17 17 15 13 10 8 4 3 4 6 9 12 8 7 10 12 13 10 10 4 9 9 7 6 4 5 5 4 6 4 5 6 3 5 7 8 5 7 6 7 6 8 9 8 6 9 7 6 7 7 8 5 10 9 8 12 5 11 12 12 11 19 22 16 13 12 11 10 13
28 28 27 27 27 26 25 25 25 23 23 23 23 23 22 22 19 17 15 16 16 15 11 8 5 2 3 3 7 7 11 4 7 9 13 12 10 7 8 9 9 10 5 7 6 9 4 4 6 5 7 6 7 10 8 6 4 10 8 8 9 12 11 8 9 12 4 9 6 8 7 5 9 4 11 9 9 10 15 17 21 19 15 13 14 11 10 13
28 28 27 26 27 26 26 27 25 24 24 24 23 24 23 21 18 16 15 14 13 11 8 5 3 2 2 2 7 16 6 5 8 10 13 11 9 15 11 12 11 10 8 5 6 6 8 6 8 6 6 4 8 6 6 9 10 10 7 10 11 12 17 12 11 13 4 9 6 6 5 11 13 9 11 9 11 11 18 19 21 16 14 16 13 12 12 13
28 28 28 27 28 27 27 27 26 25 24 24 24 23 22 20 18 16 15 13 13 11 6 3 4 2 4 8 15 15 6 7 3 10 9 9 9 9 13 9 12 13 10 5 5 5 6 7 5 6 4 5 5 7 10 7 10 7 7 6 12 14 15 17 8 14 5 7 8 6 12 14 14 17 15 12 9 13 16 15 13 17 18 16 16 15 15 14
29 29 28 28 28 27 28 27 27 25 24 23 23 22 23 21 18 14 13 13 10 8 7 5 2 3 3 12 16 10 7 7 10 8 12 10 7 10 8 11 10 8 5 6 7 7 4 3 4 2 3 3 7 5 11 13 8 8 9 11 7 8 14 15 11 12 7 5 6 7 9 15 13 16 16 12 12 18 12 12 16 19 19 22 20 21 19 14
30 30 29 28 28 27 27 28 26 25 24 23 23 23 23 22 18 12 12 10 10 9 8 5 1 4 6 17 11 14 12 6 6 8 13 10 10 7 10 8 7 11 8 9 8 3 6 6 5 4 7 3 3 7 11 11 11 8 10 12 11 4 13 16 13 8 9 7 6 13 4 10 11 15 12 6 11 18 16 16 21 24 25 24 22 21 22 19
30 31 30 28 27 26 26 27 25 24 24 24 23 25 25 20 13 11 10 9 9 11 7 2 2 3 3 17 9 9 6 4 7 11 11 12 12 10 8 4 3 4 5 7 8 5 4 6 6 9 5 8 12 9 9 15 12 11 6 8 6 5 10 15 4 5 7 6 3 5 10 6 6 8 12 8 17 14 21 19 20 21 21 22 21 19 18 19
30 31 31 28 26 24 25 26 25 25 25 25 25 25 18 17 11 8 10 10 9 9 9 5 4 3 5 10 8 8 10 9 6 3 4 11 13 10 5 3 5 7 5 7 6 4 6 4 5 5 10 7 5 9 10 11 10 12 6 6 6 5 8 12 15 8 5 4 4 6 5 7 8 11 12 11 18 16 21 20 18 19 18 18 18 19 18 17
35 33 31 29 26 24 24 26 26 25 25 28 21 18 23 20 13 15 11 8 8 9 7 5 4 7 19 8 9 7 7 9 8 9 5 5 10 5 4 4 4 6 7 8 7 5 5 6 9 7 6 6 3 7 9 10 12 6 5 7 12 4 4 9 10 9 7 5 6 6 6 10 12 12 13 10 13 23 17 17 20 21 19 18 19 19 17 17
35 35 32 27 27 26 25 26 26 25 25 27 23 17 16 13 8 5 9 6 5 7 7 6 7 10 11 8 12 10 8 9 8 4 6 7 5 6 5 4 6 3 6 7 10 5 7 5 10 8 9 7 9 13 15 15 8 8 8 9 5 6 10 13 10 10 6 4 7 4 11 12 10 12 9 10 11 23 16 18 20 20 19 19 18 16 18 18
36 36 33 29 27 27 26 26 25 23 23 17 18 14 13 19 18 9 9 4 8 11 11 8 9 9 13 18 16 8 7 6 8 8 5 3 12 6 7 5 4 9 5 8 8 6 7 7 9 13 16 14 12 12 15 15 12 7 4 4 8 7 12 9 7 13 2 3 6 9 7 7 9 10 10 12 15 18 16 16 15 16 17 17 17 16 15 16
35 36 33 31 29 28 26 25 25 22 17 6 6 11 10 11 9 15 17 19 17 13 14 17 16 16 21 15 13 12 17 9 3 5 6 5 7 9 6 4 4 5 7 8 10 6 8 8 16 19 18 14 15 9 11 8 9 8 6 5 11 8 10 9 6 5 6 5 3 5 5 7 10 9 9 9 16 20 20 16 17 15 15 14 16 15 15 11
35 35 33 31 31 28 27 27 25 21 9 4 6 10 5 4 6 13 7 25 10 12 13 18 10 14 18 19 20 11 6 14 14 11 9 5 4 8 5 7 4 8 5 4 8 11 6 16 22 20 20 9 8 8 8 8 8 7 9 8 7 13 12 13 6 5 3 3 10 3 3 8 8 8 9 12 12 14 14 23 24 23 16 15 13 12 11 12
33 36 34 32 31 30 29 26 25 16 8 9 7 3 6 8 5 4 7 11 25 11 11 11 11 14 20 13 12 12 10 11 13 8 9 7 3 8 8 5 5 5 6 2 4 2 10 11 26 25 9 10 8 8 7 6 7 8 9 6 13 8 4 13 10 7 6 6 5 4 4 10 9 8 11 7 13 10 9 15 13 14 21 16 13 13 17 15
32 32 32 30 32 31 31 29 20 6 10 3 4 4 7 4 4 7 6 11 15 13 13 12 11 9 10 10 12 12 11 9 7 6 5 12 11 5 9 6 4 5 10 6 7 11 15 19 14 8 10 14 11 6 7 8 15 5 6 8 7 4 5 10 7 7 7 7 4 6 9 10 9 7 9 10 10 14 8 14 11 8 14 14 13 15 17 18
31 30 28 30 30 33 33 25 7 6 8 1 5 7 6 5 5 5 6 13 9 18 6 5 7 7 10 4 5 11 5 5 10 8 8 12 7 6 5 6 6 7 6 5 6 6 15 19 9 5 6 8 11 6 8 11 6 7 9 12 7 5 4 4 5 8 15 10 7 3 10 10 10 9 7 7 12 10 5 15 10 11 11 15 19 17 16 16
30 29 25 27 30 31 32 7 4 11 8 6 5 8 7 5 3 4 14 9 11 13 8 4 6 10 6 5 4 6 7 9 8 10 9 10 9 9 7 7 7 6 5 8 11 13 12 7 6 10 7 5 6 6 6 10 9 5 11 10 6 7 5 3 3 8 6 7 10 4 10 14 11 7 6 9 10 9 6 8 10 9 12 16 17 17 17 17
29 27 25 24 24 26 17 6 7 8 5 8 6 7 7 6 4 8 10 12 10 8 5 6 6 12 10 4 9 5 11 9 7 3 5 5 8 4 7 9 6 5 6 6 14 14 5 8 7 7 6 5 6 7 7 13 12 9 6 9 6 5 3 4 4 5 9 5 8 7 9 11 10 11 5 7 15 8 7 6 7 7 11 15 15 15 14 15
28 27 23 23 22 13 9 12 13 8 8 6 6 8 8 6 6 11 14 7 15 9 8 8 5 6 4 5 8 12 9 5 7 7 7 9 11 7 4 7 11 9 7 7 7 13 3 5 4 4 4 5 9 10 7 10 13 11 6 11 7 5 6 5 6 6 4 2 16 11 2 7 11 11 4 12 16 7 10 10 10 10 12 13 14 15 15 15
30 26 24 22 24 15 6 6 3 8 8 6 9 8 10 6 11 12 9 11 13 11 13 7 9 4 8 4 6 5 6 3 6 6 3 5 5 12 5 9 7 5 5 9 13 13 8 9 10 9 9 9 9 6 10 13 6 8 9 12 10 9 9 5 7 6 5 5 13 10 6 13 14 10 6 4 9 15 19 15 11 12 14 15 15 14 15 15
33 28 24 22 16 5 5 4 10 11 10 10 9 8 5 9 10 10 8 9 16 8 9 8 7 7 6 5 6 5 7 7 6 4 5 10 7 5 7 6 6 4 7 5 7 15 13 8 9 9 10 11 8 7 7 6 6 5 9 8 8 13 8 6 11 6 7 6 16 10 6 11 16 11 18 21 23 25 13 7 6 8 9 11 13 14 15 14
34 32 25 19 10 7 5 9 14 10 10 8 7 7 7 16 10 6 4 12 11 7 11 9 10 6 9 7 10 8 10 4 5 8 6 5 5 7 7 8 12 11 6 8 10 10 10 5 6 9 7 5 5 6 6 4 4 8 7 6 6 10 13 9 9 9 6 12 11 7 9 10 13 10 13 14 7 14 24 21 19 18 18 17 12 13 14 13
34 34 30 19 10 4 8 9 4 7 9 8 9 9 10 9 11 5 10 7 15 17 7 10 5 11 10 3 5 6 7 4 3 8 11 10 5 6 6 9 7 5 9 4 9 10 9 5 7 10 5 13 5 7 8 10 10 14 10 14 9 11 10 9 10 8 8 13 7 4 6 4 12 16 8 12 17 9 12 19 26 24 18 15 13 12 11 10
35 33 31 14 9 5 11 13 9 10 11 8 11 9 11 10 5 7 9 11 7 7 12 5 7 13 13 10 8 8 4 5 5 3 6 5 4 8 7 12 13 16 10 7 4 12 12 8 9 9 5 5 11 12 5 7 6 8 10 8 9 5 5 8 10 7 11 14 10 6 7 12 10 14 8 10 11 12 15 11 15 21 22 20 15 11 10 9
35 30 20 7 15 15 9 4 7 10 10 9 11 10 14 9 9 9 5 5 4 6 4 9 16 14 15 10 9 11 10 4 5 7 3 5 6 5 8 10 9 8 6 3 6 6 7 12 11 6 8 5 5 9 15 11 9 11 8 14 13 15 15 10 11 11 10 12 12 6 6 14 3 9 8 9 10 11 12 11 13 13 16 15 12 11 10 10
38 22 12 9 9 16 18 14 8 3 7 10 17 12 5 10 5 4 5 7 8 7 7 8 11 6 12 7 6 6 4 6 8 5 8 3 7 3 5 6 4 10 8 9 6 6 5 13 12 6 4 4 8 7 8 9 9 5 7 12 12 11 14 11 13 9 9 9 10 7 14 9 12 5 6 5 8 10 8 10 13 13 11 12 12 12 12 12
21 19 6 10 11 11 10 10 5 4 10 13 13 9 6 9 7 4 5 5 6 9 11 13 7 9 5 8 6 9 10 6 10 8 6 4 5 5 3 5 7 3 9 8 8 7 7 8 6 13 5 7 10 7 7 9 12 9 5 8 10 11 15 11 6 4 4 10 14 6 15 11 14 6 5 7 7 6 6 8 13 14 10 10 13 12 13 14
22 21 18 13 13 14 7 7 10 10 14 14 13 6 10 4 4 5 7 5 8 4 7 10 13 7 10 10 7 12 12 8 9 9 9 7 9 12 9 7 6 5 6 12 4 7 10 12 11 9 11 8 13 5 5 3 11 14 6 13 7 6 10 11 10 8 6 8 17 4 10 9 7 15 8 3 4 2 5 7 10 10 11 14 15 14 16 16
18 13 9 10 13 11 9 9 11 14 12 11 7 8 3 5 5 2 5 6 6 6 8 6 10 7 7 5 11 9 11 7 13 10 7 6 9 8 5 10 9 7 5 3 12 6 8 10 10 3 5 13 12 7 8 5 4 11 10 9 9 10 9 8 9 7 7 11 13 7 3 8 10 13 5 8 10 9 8 8 10 12 14 17 16 15 14 11
6 7 10 10 15 12 9 12 15 10 10 16 7 8 6 4 3 7 7 6 2 5 7 4 4 6 5 5 5 6 6 10 7 11 9 10 10 13 14 9 6 10 6 7 9 4 7 7 15 6 7 9 8 9 10 10 12 5 6 7 3 12 7 8 15 9 10 10 5 12 3 15 14 14 16 18 16 13 11 9 16 20 21 19 17 16 15 14
14 12 7 8 11 15 9 10 11 14 13 7 6 6 7 4 4 6 10 11 8 8 4 4 4 5 8 3 2 6 6 4 5 8 5 14 9 10 21 16 9 17 9 7 6 3 6 3 9 12 9 8 13 6 5 6 6 8 8 5 7 6 7 10 5 9 10 13 11 11 13 15 15 12 13 18 16 17 20 21 18 18 18 18 17 17 15 15
7 7 11 8 15 16 9 17 18 10 6 7 3 4 4 4 5 5 8 10 8 6 7 8 8 7 5 10 10 7 8 6 6 5 7 6 9 9 15 16 11 9 9 9 10 6 6 6 9 12 15 7 11 9 5 10 10 10 11 10 12 7 7 5 16 8 7 11 15 10 22 17 20 8 15 16 15 14 16 17 19 17 18 18 17 14 15 16
10 12 10 12 14 9 11 11 12 3 6 4 5 5 6 5 5 5 5 7 8 9 7 7 6 6 7 6 4 7 9 9 4 3 4 5 7 8 11 18 15 6 8 6 5 6 9 8 5 9 11 10 13 12 8 10 8 11 12 9 6 6 10 10 10 11 7 9 8 7 9 17 14 6 8 11 10 13 14 11 14 14 15 16 17 16 15 15
13 9 14 12 15 6 14 9 6 12 6 8 9 4 4 4 3 4 6 5 6 7 9 10 11 10 6 10 6 6 4 10 5 7 5 5 5 10 13 18 17 15 7 7 5 4 6 8 5 9 11 11 12 6 5 9 8 9 7 5 5 6 8 12 11 10 10 7 7 8 12 19 11 5 7 8 8 9 11 12 17 15 14 15 15 14 14 12
8 9 17 11 13 9 22 10 11 10 10 10 6 5 4 3 4 7 5 3 6 6 5 6 4 5 6 13 10 6 3 9 5 9 6 7 8 11 12 17 17 17 12 8 9 8 8 8 8 6 13 18 16 12 10 9 12 7 5 9 3 5 6 3 8 4 7 11 11 10 20 13 11 6 7 3 5 6 10 12 11 14 13 14 14 12 11 12
14 9 9 19 20 18 15 5 4 5 7 7 7 8 12 8 4 3 2 3 3 2 3 5 4 3 5 5 9 7 3 4 13 5 5 5 9 9 9 18 14 8 7 11 10 8 8 7 7 6 8 9 10 6 8 8 9 8 3 4 4 3 5 3 6 5 10 7 6 11 15 16 14 9 7 5 4 8 10 10 9 12 12 12 10 11 12 10
13 12 17 16 19 15 13 4 9 6 6 8 8 7 2 8 9 6 7 6 3 2 3 3 3 3 5 8 8 8 6 4 5 10 11 10 11 11 12 14 12 12 14 15 12 10 9 5 9 12 12 14 16 14 10 3 7 9 9 5 14 7 6 5 8 7 15 10 9 14 13 14 13 12 11 12 7 10 12 9 13 14 15 13 9 11 12 12
6 13 11 17 17 13 6 8 13 13 13 7 8 8 7 5 7 8 6 5 6 4 5 5 4 5 5 5 5 5 4 6 3 6 6 7 6 11 13 10 11 10 17 13 15 6 4 7 7 8 11 14 13 11 10 7 9 9 9 12 10 11 9 8 13 17 10 7 22 12 10 11 16 15 14 15 13 11 12 11 9 10 13 17 16 10 9 7
12 5 6 4 6 11 16 12 14 13 13 5 9 5 6 7 9 9 10 4 3 7 7 7 9 5 2 4 3 8 7 7 6 8 5 4 10 11 20 8 11 9 11 8 8 8 5 9 7 6 8 12 10 10 9 7 7 9 10 11 14 16 11 11 12 18 10 16 24 12 11 12 12 14 17 17 16 17 17 18 18 15 10 6 7 9 10 11
8 7 3 5 8 7 7 13 13 9 13 9 8 7 7 7 6 5 4 10 8 6 6 6 5 6 5 5 3 7 3 8 9 4 6 7 5 12 11 11 5 7 6 6 8 8 7 9 8 6 7 7 8 8 8 9 7 7 8 12 14 13 17 16 17 15 15 16 17 18 13 17 17 17 17 19 13 13 13 9 5 7 10 10 9 10 10 9
8 5 10 9 5 7 7 5 7 7 9 11 6 6 10 8 7 10 7 4 9 5 4 5 6 8 7 6 3 6 5 6 6 10 3 4 13 5 8 8 13 5 5 10 10 3 6 11 4 3 6 9 8 8 6 4 5 10 10 12 13 12 11 13 9 10 8 11 13 16 14 20 20 16 18 16 10 6 5 8 10 10 10 10 10 10 9 10
4 3 5 9 11 8 6 5 6 8 6 10 10 7 7 8 7 6 6 5 4 4 5 5 6 9 5 5 6 8 7 10 10 11 11 8 15 5 8 10 4 12 12 12 5 6 7 9 5 6 8 10 7 7 7 8 5 8 15 16 17 14 14 13 18 13 10 14 8 4 6 16 19 8 7 6 8 10 11 12 10 8 9 9 11 11 9 7
4 3 6 7 6 7 7 5 6 7 6 7 7 6 8 5 5 7 9 6 9 8 7 7 8 6 8 5 9 10 9 10 11 14 13 13 14 14 15 20 17 19 14 15 6 12 10 8 8 4 7 11 9 3 5 5 10 17 19 22 22 19 14 7 8 6 13 8 6 7 15 12 12 6 7 6 8 13 12 11 10 8 8 11 13 13 11 9
Wind_Speed
15 15 14 14 14 14 14 14 13 14 13 13 13 13 13 13 13 14 15 15 16 15 15 14 14 14 13 13 12 12 11 1 1 0 2 8 7 6 6 8 8 6 5 1 3 3 1 3 4 5 3 2 1 1 0 1 1 1 2 5 1 3 3 5 5 6 2 1 2 2 1 1 1 4 4 3 4 2 2 4 3 6 8 7 4 4 3 9
16 15 15 15 15 15 14 13 13 13 13 13 13 13 13 13 13 14 15 15 15 15 14 14 14 13 13 12 12 11 8 0 1 2 8 4 7 10 8 8 8 7 5 2 4 3 3 3 1 3 3 2 2 0 0 1 1 3 2 3 6 4 5 4 3 4 1 5 3 3 1 2 4 1 2 3 5 5 7 4 4 5 7 8 8 6 5 8
16 16 16 16 16 15 14 14 14 13 13 13 13 12 13 13 13 14 15 15 14 14 14 14 13 13 12 10 8 7 5 2 1 3 3 1 9 10 9 8 7 6 1 2 1 3 1 1 0 1 3 2 3 1 1 0 2 2 4 2 6 6 4 4 2 3 4 4 6 5 3 3 2 1 2 1 4 5 4 5 5 3 2 3 4 5 3 6
18 17 17 17 16 16 16 15 14 14 13 13 13 12 13 13 13 14 14 14 14 14 13 13 13 12 11 10 8 6 0 1 0 2 3 3 9 9 9 8 8 5 4 2 3 2 3 5 3 4 2 3 2 1 1 2 2 2 1 3 4 4 2 4 5 8 8 4 2 1 1 1 3 3 0 2 3 3 5 3 1 3 6 3 0 1 2 6
18 18 18 17 17 17 17 16 16 15 14 13 13 13 12 13 13 14 14 14 14 13 12 12 11 10 10 8 8 1 1 3 1 2 3 4 9 9 9 8 8 3 1 5 5 4 4 3 3 3 2 1 2 1 1 0 2 3 7 5 4 1 1 5 4 6 3 4 2 2 2 3 1 1 0 1 1 4 2 3 3 3 8 10 8 4 0 3
19 18 18 18 17 17 17 17 16 16 15 14 13 13 13 13 13 14 14 14 13 13 12 11 10 9 8 6 1 0 2 1 1 1 2 8 9 9 9 8 8 5 5 3 1 2 3 3 3 1 1 2 2 2 2 1 1 3 3 2 3 4 5 3 3 4 4 0 2 0 3 1 1 2 2 2 4 5 6 4 3 3 6 5 5 6 3 3
19 19 19 18 18 18 18 17 17 17 16 15 14 13 13 13 14 14 14 13 13 13 11 10 9 9 10 3 1 2 2 3 1 7 3 8 8 10 9 8 7 4 2 1 2 1 1 2 3 1 3 3 0 0 2 0 1 2 2 0 5 4 7 9 5 2 2 6 5 4 1 1 1 1 0 2 6 9 7 4 1 5 6 8 8 5 8 6
19 18 17 17 17 17 18 17 18 17 16 15 14 14 13 14 14 14 14 13 13 13 11 10 8 7 7 0 1 2 1 2 6 5 3 10 9 9 10 5 5 3 1 1 1 0 2 4 3 2 2 2 2 2 0 4 2 3 2 1 3 2 4 5 5 6 3 4 3 2 1 3 3 1 0 4 7 7 5 3 3 5 9 4 3 2 3 6
17 17 18 18 18 18 18 18 17 17 16 15 14 14 14 13 13 13 14 14 13 12 11 9 7 4 1 1 2 2 1 4 6 2 8 9 8 8 9 2 2 4 1 1 1 1 1 0 1 3 1 1 1 1 0 2 1 3 3 1 2 3 4 5 5 5 5 3 2 2 5 3 3 2 1 3 6 5 5 1 2 3 13 9 5 5 4 4
21 19 19 18 18 18 17 17 17 17 16 15 15 14 14 13 13 13 13 14 13 12 11 8 6 2 1 1 2 4 2 5 4 1 8 10 8 8 1 3 5 4 2 1 2 2 1 2 2 3 4 1 1 0 1 3 1 3 3 3 4 6 2 5 5 3 3 3 4 4 3 0 2 1 2 3 7 8 3 2 2 5 7 9 8 6 4 7
19 18 17 17 17 17 17 17 17 16 15 15 14 14 14 14 14 13 12 12 12 12 9 6 4 1 1 2 3 1 4 3 1 2 7 8 8 5 4 6 5 4 2 1 3 5 2 2 3 2 1 2 1 1 0 2 1 3 3 0 1 6 5 4 1 6 1 3 4 6 3 0 5 1 3 5 6 6 2 2 2 2 2 4 10 7 5 7
19 20 21 21 19 18 18 17 16 15 15 14 14 14 14 14 14 13 12 11 10 9 6 4 2 0 1 1 3 5 2 2 1 3 4 5 3 5 6 8 7 5 5 0 3 2 3 2 5 2 1 0 0 0 0 2 0 0 0 4 6 6 6 0 1 1 0 2 4 4 2 3 6 2 6 6 7 2 5 4 2 2 3 2 5 7 5 6
20 21 21 21 19 20 18 18 17 17 15 15 14 13 13 13 13 13 11 10 8 8 5 2 1 1 0 2 6 8 4 1 1 5 3 0 0 2 2 5 6 5 4 2 3 0 4 4 3 3 2 2 1 0 1 2 2 1 3 1 4 8 6 3 1 2 2 2 1 2 2 3 5 8 8 3 2 3 8 5 4 3 4 4 4 7 6 4
22 21 20 20 20 20 19 19 18 17 16 14 13 12 12 12 11 11 10 9 6 3 2 2 1 0 1 3 6 4 4 0 3 2 1 1 2 5 4 2 3 3 1 2 3 2 2 1 3 1 1 1 1 1 2 5 4 1 1 5 1 4 3 7 2 7 4 2 2 2 1 3 3 5 5 2 2 3 5 4 4 3 3 3 5 8 8 7
23 22 21 21 21 20 20 20 20 19 17 15 13 11 11 12 11 9 8 7 7 5 3 2 0 1 1 5 5 8 4 3 2 3 5 5 3 3 6 2 1 4 4 4 1 1 4 4 2 1 1 0 1 1 2 3 5 2 4 2 4 2 4 10 4 1 2 2 4 3 1 1 4 5 5 1 4 4 8 4 4 4 4 4 4 11 10 8
24 24 23 22 19 20 20 20 19 19 19 17 13 14 11 9 8 7 6 5 3 5 3 0 0 1 0 3 1 2 3 0 2 3 6 7 5 5 3 1 1 2 3 0 0 1 2 2 2 1 0 1 5 4 4 4 3 5 3 2 2 1 4 6 1 3 2 1 2 2 2 0 1 5 5 2 5 5 9 5 4 4 4 5 6 6 11 11
23 24 24 23 20 18 20 20 19 20 20 20 18 6 4 2 1 2 4 3 3 3 0 0 0 0 1 3 1 1 1 2 3 1 1 3 8 5 1 1 1 0 3 2 4 3 2 1 1 1 5 2 2 3 1 5 3 2 2 1 2 1 2 3 8 1 3 1 1 3 1 1 1 5 6 5 2 6 7 6 5 4 4 4 4 6 9 10
27 27 26 23 21 19 19 21 21 20 20 21 14 7 1 5 10 12 7 4 1 1 1 1 1 2 6 3 3 1 0 5 3 3 1 1 4 3 2 0 0 4 4 2 3 2 1 0 4 3 2 3 1 3 3 2 2 1 1 1 3 1 2 4 2 3 4 2 2 2 0 4 2 4 3 1 3 2 5 4 4 5 5 5 5 5 7 8
24 23 24 22 22 21 20 21 21 19 20 17 6 8 10 9 1 0 4 1 1 2 1 1 1 2 3 1 4 6 2 6 2 2 2 2 1 3 3 1 4 0 1 2 2 1 2 2 3 2 2 2 1 5 5 3 4 2 4 3 2 1 4 3 4 4 1 2 1 3 2 3 2 5 2 1 1 3 5 4 3 3 3 4 4 5 6 7
28 28 27 23 22 21 21 21 20 18 17 11 5 1 3 5 6 1 3 2 3 6 5 4 3 3 5 6 4 4 3 5 2 2 0 0 6 4 1 1 2 5 2 1 3 1 0 1 2 4 6 7 4 6 5 3 4 2 2 1 2 2 6 4 4 7 0 0 1 1 2 0 2 5 5 2 2 3 5 6 4 3 5 5 4 5 5 7
26 25 24 24 23 22 21 20 20 18 11 1 1 4 1 1 2 4 6 7 7 3 6 6 10 8 6 1 1 2 3 4 1 2 1 1 3 6 2 2 2 1 1 1 2 2 2 2 5 8 9 7 5 5 1 2 1 0 1 0 5 2 5 5 2 3 2 2 1 1 2 4 2 4 4 1 2 7 7 5 4 7 5 4 6 6 6 5
25 26 26 23 24 22 21 20 20 17 5 1 3 3 2 1 1 2 1 7 3 7 7 8 0 4 4 7 1 4 3 1 8 6 4 2 1 3 2 3 2 4 1 0 2 3 2 3 7 8 4 2 2 4 4 5 2 1 2 2 0 6 6 9 3 3 1 1 4 2 0 3 4 3 2 4 4 3 3 5 10 12 8 4 4 5 6 5
25 29 27 26 23 23 23 20 20 13 3 4 3 2 1 2 1 1 1 1 8 2 4 2 3 5 6 3 1 6 2 4 4 4 2 3 1 4 3 3 2 1 1 1 2 0 4 5 11 3 3 3 1 3 4 2 2 4 2 2 5 3 0 1 2 2 3 2 2 1 1 1 3 3 1 2 3 3 3 2 3 3 4 6 5 4 6 6
24 25 26 23 24 24 24 23 15 4 3 0 1 1 0 2 2 2 1 3 5 7 3 4 4 3 5 1 3 6 5 2 3 3 2 4 5 2 4 4 2 1 2 3 4 5 7 9 0 1 2 4 3 3 5 3 3 1 4 3 2 1 2 5 1 2 2 2 2 2 2 2 5 2 2 2 1 1 2 2 3 3 3 1 1 3 1 4
23 24 23 24 23 25 26 18 4 2 2 1 1 3 2 2 1 2 2 3 2 4 2 0 1 2 4 1 2 4 3 0 6 2 1 6 2 2 1 1 2 2 2 2 2 0 8 8 1 3 2 1 3 2 5 7 2 1 5 8 4 3 3 2 2 3 6 2 3 2 2 2 4 1 2 2 0 2 1 2 1 1 2 1 3 1 2 3
24 24 22 20 23 24 24 2 2 3 3 1 1 0 1 2 1 2 5 3 2 4 2 1 0 1 1 1 1 1 3 1 3 4 3 4 4 3 1 1 1 2 3 3 5 3 5 1 1 1 4 3 2 1 3 6 5 2 5 7 3 4 2 2 1 2 1 1 1 1 1 3 3 2 3 2 2 2 1 0 1 0 2 2 2 1 1 2
24 22 20 18 19 20 8 1 3 3 2 1 1 3 2 1 2 4 1 3 1 1 1 1 0 1 0 0 3 2 0 2 2 1 1 1 3 1 3 2 1 1 2 2 3 3 0 2 4 3 3 3 2 1 3 7 7 3 2 6 4 4 2 2 2 3 2 1 2 4 4 3 2 3 2 0 4 3 1 2 2 3 4 3 2 1 1 1
23 22 20 19 16 9 4 3 5 2 3 1 3 4 3 0 3 3 2 1 1 3 2 2 0 1 1 1 3 1 2 1 2 1 0 0 3 2 1 4 6 5 2 2 3 3 1 1 1 2 1 2 4 5 5 6 5 3 2 7 4 3 3 4 3 3 0 0 6 3 1 0 2 3 2 2 6 4 7 7 6 5 4 4 4 3 3 3
24 20 20 18 17 10 2 2 1 2 1 4 4 4 1 3 4 5 2 1 3 1 5 1 3 1 4 2 1 1 1 0 0 1 1 2 3 2 0 3 3 2 0 4 6 2 2 3 1 3 3 4 5 2 6 8 2 2 6 8 6 6 6 3 4 4 0 1 5 3 1 2 5 4 1 1 2 6 10 10 7 5 5 5 5 5 4 4
25 21 20 18 11 2 1 1 3 4 6 5 4 2 3 3 2 1 2 2 3 2 2 2 1 3 3 2 2 2 2 2 1 1 2 2 3 3 1 3 3 1 1 2 2 7 3 4 5 3 3 3 2 0 3 3 2 3 5 5 3 7 3 3 6 2 3 0 6 5 2 3 3 4 8 8 9 11 7 1 3 4 6 7 6 5 5 5
27 24 20 15 1 2 2 3 4 3 6 5 2 2 2 7 2 2 0 1 1 1 3 3 2 3 5 4 4 2 1 1 1 1 0 1 2 4 1 1 5 4 2 3 3 5 4 1 1 2 3 1 3 3 4 2 1 3 2 2 2 1 5 3 3 4 1 4 5 2 2 4 4 2 5 8 2 2 10 13 11 11 12 10 7 5 5 4
27 26 24 9 3 1 2 0 1 4 5 4 3 4 3 2 2 0 2 1 1 5 3 4 2 3 6 2 1 2 2 2 1 1 4 2 2 3 2 4 2 1 2 0 2 3 2 1 1 6 3 6 1 3 1 3 3 5 4 5 3 2 3 2 2 1 2 4 1 1 1 1 5 7 4 8 11 5 7 9 13 15 12 9 7 6 5 4
27 26 18 2 4 0 4 4 4 5 7 3 4 3 2 4 0 1 1 4 1 2 3 1 3 6 6 3 3 4 3 0 3 0 2 0 1 3 2 1 3 2 3 2 0 3 3 3 4 4 2 1 4 5 1 1 1 5 4 4 4 0 0 2 3 0 4 5 3 1 1 3 3 7 5 6 7 6 6 7 7 10 14 13 10 6 5 5
27 22 7 2 4 5 4 3 4 6 6 4 2 3 6 2 1 4 1 1 0 1 1 1 4 4 10 3 4 5 5 0 2 2 1 1 3 1 2 1 2 0 1 1 1 1 0 3 4 1 0 1 2 3 7 4 5 6 2 6 7 7 4 2 3 3 4 4 2 3 1 3 1 2 2 6 6 7 7 7 8 7 5 4 4 4 4 4
27 12 3 1 2 4 6 4 3 1 2 1 8 4 2 1 1 0 1 2 2 2 1 2 1 3 2 1 3 2 1 2 4 2 4 2 1 0 1 2 2 4 1 4 2 2 1 4 5 3 1 1 1 0 4 5 3 0 2 5 5 5 6 3 4 4 1 1 2 1 3 3 4 1 4 2 2 1 0 5 8 8 5 4 4 6 6 6
14 8 1 2 4 6 2 0 1 1 2 5 5 3 1 1 1 1 1 1 1 1 5 3 4 4 2 3 1 4 4 1 6 4 2 2 1 1 1 1 1 1 1 1 2 2 2 1 2 7 1 0 0 1 2 3 2 3 2 3 3 2 8 5 1 2 2 4 4 0 6 4 7 2 1 4 2 1 1 4 7 9 7 5 7 8 7 8
8 9 5 5 4 6 2 2 2 2 7 6 6 1 2 1 2 1 2 1 2 0 3 3 3 2 4 3 3 7 6 4 3 3 1 0 1 6 4 2 3 0 3 3 1 2 3 4 2 2 2 1 1 0 0 1 4 5 1 5 2 2 4 4 2 2 2 2 5 1 4 4 2 4 3 1 1 1 1 4 5 6 6 8 10 9 9 10
5 3 2 3 2 5 2 1 1 6 5 5 2 1 1 1 1 0 1 1 2 3 3 2 1 3 1 1 5 4 6 3 6 4 3 2 1 2 3 3 3 3 4 0 1 1 2 2 3 0 2 8 6 1 3 1 2 4 2 4 2 2 1 2 3 1 1 2 3 2 1 3 4 6 1 4 5 5 4 4 5 7 8 11 10 10 9 8
0 1 1 3 3 6 4 1 7 5 3 7 2 3 1 0 1 1 2 2 1 1 2 0 0 1 1 1 2 2 2 3 1 1 1 4 2 4 4 3 3 7 4 3 2 1 2 1 4 1 0 3 3 3 4 1 4 3 3 3 0 2 2 3 5 3 4 3 2 5 2 4 5 4 8 8 9 8 5 4 10 13 14 12 10 10 10 9
5 2 2 2 7 9 5 2 5 6 5 3 1 1 2 0 0 2 3 0 2 3 0 1 1 1 3 0 0 2 2 2 3 1 3 2 2 3 8 8 3 10 6 3 3 0 0 0 2 2 3 2 2 1 1 2 0 1 1 1 1 1 2 4 1 3 3 4 5 2 2 4 6 6 5 8 9 9 10 12 11 11 12 12 11 11 9 9
1 2 1 3 9 9 3 9 8 5 3 1 1 1 2 1 2 2 5 5 1 1 1 1 1 1 1 2 2 1 1 2 1 0 3 2 2 1 2 5 4 4 5 4 6 2 2 0 3 3 4 2 5 3 2 2 3 3 5 5 6 4 2 2 7 2 2 3 3 3 7 6 8 3 7 7 8 7 10 11 12 11 12 11 10 9 9 9
2 2 3 6 9 4 4 5 3 0 2 2 2 1 1 3 1 3 2 3 4 1 2 2 1 1 0 0 1 2 1 2 1 1 0 2 0 2 2 7 5 4 1 0 1 1 1 2 1 3 5 5 5 7 3 3 3 3 2 4 2 2 5 4 2 4 1 1 4 3 0 6 6 3 4 6 4 6 7 6 8 8 10 11 11 10 9 9
5 0 5 7 8 2 7 4 2 4 2 2 4 1 2 1 1 1 1 3 2 1 1 2 0 1 0 0 1 1 0 2 1 1 1 2 1 3 3 9 9 4 1 1 1 0 2 1 0 4 5 5 4 3 1 1 4 3 1 1 1 1 3 5 4 4 4 1 1 1 1 5 4 1 3 5 5 5 5 7 11 9 8 9 10 9 9 8
1 2 6 6 8 5 10 3 3 6 2 5 3 2 2 0 1 3 2 2 1 2 1 0 1 0 1 0 0 1 1 2 1 2 2 2 1 3 9 9 11 6 5 3 2 3 1 1 3 1 3 5 4 4 1 2 3 1 0 2 0 2 4 2 4 1 0 6 6 5 7 3 3 2 4 2 3 4 7 8 7 9 8 9 9 8 7 7
1 1 2 8 10 8 6 1 1 0 2 3 3 5 6 2 1 0 0 1 1 1 0 0 0 0 0 0 1 1 1 1 2 2 1 1 2 1 0 5 5 3 4 3 3 3 1 2 2 2 3 3 2 1 2 2 4 2 1 2 1 2 4 1 1 1 3 2 4 3 4 7 7 5 5 4 3 6 7 6 5 7 7 8 7 7 8 6
3 1 5 5 6 6 4 1 4 1 1 4 3 2 0 3 3 4 3 1 1 0 1 1 1 1 0 2 2 1 1 1 2 2 2 2 1 1 1 5 3 3 0 5 4 3 1 0 3 5 6 7 6 3 2 1 2 3 3 0 3 1 0 2 4 3 5 3 4 6 4 4 7 7 7 8 5 7 8 5 7 9 10 8 5 7 7 8
0 4 1 5 5 6 2 3 3 3 2 1 0 1 3 2 3 2 3 1 3 1 1 2 0 1 1 2 1 2 2 2 1 2 2 1 1 2 7 6 3 4 1 5 3 2 1 1 4 4 6 8 4 5 3 4 5 4 4 6 3 3 3 4 5 6 4 2 9 2 5 4 8 9 9 10 9 7 8 7 6 6 8 10 10 7 6 5
3 1 2 1 1 2 3 3 5 1 1 1 1 0 2 4 5 3 5 2 0 2 2 2 5 3 1 1 0 1 2 2 1 2 1 1 2 3 6 2 2 3 1 0 1 1 1 2 2 2 5 5 5 6 2 2 4 4 5 5 7 6 3 6 5 7 4 4 10 3 4 5 6 8 11 11 9 8 10 11 11 8 5 3 4 6 7 7
3 1 0 1 0 2 2 1 1 0 2 1 1 3 3 4 3 1 1 4 3 2 3 1 3 4 4 3 0 2 0 2 3 1 0 2 1 3 3 4 1 4 3 2 2 1 1 4 4 4 3 3 4 3 2 5 3 3 5 6 8 7 7 7 8 6 8 7 8 9 7 10 10 10 11 12 6 6 7 6 4 3 5 5 5 5 7 6
2 1 1 4 2 1 2 1 1 2 4 3 2 3 1 2 3 5 2 1 2 2 2 2 4 6 5 4 1 2 2 2 3 4 1 1 3 0 2 4 3 1 2 1 2 1 1 3 0 1 1 4 4 5 2 2 3 5 6 6 8 8 7 7 4 5 4 6 8 9 9 11 10 9 11 11 4 4 4 5 6 4 3 5 5 5 6 7
0 0 0 1 1 2 0 2 1 2 2 3 3 1 2 1 1 0 3 1 2 0 1 2 3 5 2 3 3 5 3 5 6 7 5 3 6 1 1 3 1 4 4 3 1 1 1 3 1 1 2 4 3 2 2 1 3 5 10 10 9 7 8 5 4 6 5 8 5 2 3 7 9 3 4 4 2 3 6 6 5 4 4 4 5 7 6 5
1 0 2 1 0 3 1 0 1 2 1 1 1 0 1 0 2 1 1 0 1 3 2 1 3 3 4 3 5 3 5 6 7 9 8 7 7 8 8 10 8 7 2 3 1 2 2 1 2 0 3 4 4 0 1 1 3 9 11 13 14 12 9 2 3 4 8 4 3 4 8 6 5 1 3 3 1 3 4 6 7 5 5 5 8 8 7 6
Wind_Direction
351 349 347 345 341 338 335 333 329 326 323 321 319 318 316 317 318 317 317 316 314 312 312 310 309 310 312 317 321 328 334 331 356 13 351 243 193 173 134 125 131 128 121 75 30 82 359 12 20 348 70 74 316 61 264 76 123 67 117 115 196 196 163 208 190 187 205 210 277 326 174 131 315 321 287 355 340 334 303 31 331 35 41 27 19 26 69 110
353 350 348 345 343 340 337 333 330 327 324 321 319 317 315 315 315 316 313 313 313 311 310 312 311 311 317 318 322 333 331 7 327 313 241 221 130 147 137 131 125 134 112 49 90 96 83 352 355 40 93 100 318 59 338 211 83 103 92 109 218 182 237 151 205 207 169 258 225 272 318 188 235 214 295 347 306 352 338 349 359 64 26 23 19 11 39 84
354 352 349 347 344 341 338 334 331 328 324 322 318 315 313 312 312 313 310 311 310 309 309 308 314 316 316 319 325 338 347 344 9 285 268 323 159 146 140 133 125 124 118 157 207 129 122 192 197 84 18 95 355 169 61 236 124 219 115 219 249 213 244 224 209 238 227 245 289 285 302 164 247 188 308 315 277 338 345 315 345 48 31 30 352 352 35 80
355 352 350 347 344 342 339 336 333 330 325 322 318 314 313 310 310 310 309 308 308 308 307 309 313 316 317 315 327 327 282 51 350 249 268 182 143 145 136 127 120 107 94 76 140 105 90 75 63 90 63 70 308 36 122 256 110 256 96 185 231 207 210 268 191 227 240 189 248 245 18 10 276 216 82 250 8 321 284 235 133 260 162 126 332 332 12 96
353 352 350 347 345 342 341 338 335 332 326 322 318 316 314 309 309 307 306 306 306 305 304 307 312 310 310 315 321 334 49 49 260 223 253 142 142 144 135 128 121 106 112 132 76 52 71 95 97 38 85 137 9 30 262 286 179 110 204 222 197 58 276 245 205 236 199 197 200 288 327 236 319 70 271 157 267 248 225 242 181 212 177 158 165 174 255 103
353 351 350 348 345 342 339 337 335 332 330 323 319 316 313 309 306 304 303 302 303 302 303 306 310 310 313 315 43 178 78 86 241 272 175 167 146 135 128 120 123 110 99 63 98 56 84 21 67 52 22 76 165 119 265 184 135 213 310 278 234 199 227 257 201 226 167 151 179 264 230 77 66 276 241 155 226 244 227 224 174 193 181 151 138 140 156 155
349 348 347 346 343 339 337 335 332 331 326 324 319 316 311 308 304 302 301 300 298 299 304 305 308 316 320 360 150 82 106 264 325 254 192 162 142 122 117 113 107 91 78 70 27 98 92 92 80 139 88 64 293 170 268 4 350 137 251 315 296 178 215 249 250 212 188 148 228 215 47 209 125 334 116 232 252 251 284 325 339 165 139 143 143 183 167 173
346 344 343 342 341 338 336 334 332 328 325 321 319 314 310 305 304 301 298 297 296 296 300 304 314 321 352 81 43 341 51 261 253 247 151 99 99 107 99 85 101 85 87 200 154 52 137 57 103 142 66 127 194 150 322 63 35 151 281 257 260 142 237 280 269 282 254 232 239 286 210 242 171 211 98 248 263 282 291 334 106 148 112 82 98 110 36 34
340 338 338 340 340 338 335 333 331 329 324 319 315 312 306 304 300 299 296 294 295 293 296 306 319 336 315 64 95 26 326 236 218 156 123 107 116 122 127 116 133 130 147 101 191 210 120 251 120 174 255 189 214 19 297 125 331 171 223 209 289 280 294 279 316 267 252 269 169 175 239 289 234 213 217 278 274 273 294 57 90 225 121 127 111 75 93 84
344 342 338 337 337 336 334 331 329 327 322 318 315 310 305 299 296 293 293 293 291 290 293 303 325 337 16 78 35 59 261 229 301 356 123 119 117 106 98 126 147 122 115 258 92 125 78 211 117 179 125 88 148 342 116 92 217 184 238 224 241 255 313 293 205 260 245 231 183 190 264 244 301 54 294 292 262 308 317 39 24 254 124 139 112 123 139 108
341 337 333 334 333 333 331 330 327 322 319 314 311 305 301 297 292 290 287 285 286 287 294 304 329 43 23 77 90 236 251 71 317 93 133 127 118 146 184 150 163 138 145 167 219 192 180 162 161 102 56 226 125 303 128 215 140 201 204 49 301 312 252 261 310 275 31 289 179 186 221 187 333 111 214 250 307 317 147 49 319 269 102 134 120 130 131 112
339 337 340 339 333 331 329 326 322 316 311 307 304 304 298 292 289 284 281 278 278 285 293 295 308 110 64 86 146 216 231 198 93 107 121 138 168 200 144 168 172 158 157 251 263 234 178 177 109 66 269 112 315 334 224 232 88 300 73 8 308 355 10 301 342 339 273 267 166 167 31 355 350 333 276 284 304 324 83 59 14 343 30 0 95 110 112 134
341 341 339 337 333 332 328 324 319 314 310 304 303 291 292 291 286 283 281 280 275 267 274 275 96 47 81 354 233 234 271 189 77 93 82 76 309 244 158 157 171 169 172 166 250 214 175 142 84 22 188 108 192 213 199 65 313 76 37 116 6 356 356 316 326 354 16 283 1 5 315 278 289 281 291 286 344 17 66 59 36 3 46 10 57 81 91 93
344 341 339 337 335 330 328 324 320 318 309 302 299 296 292 283 277 274 270 255 262 288 203 189 103 76 89 235 272 241 249 123 96 89 188 124 134 281 341 159 171 178 175 212 256 184 159 199 110 142 100 155 272 306 30 335 19 156 277 67 78 17 289 299 34 303 48 301 349 77 198 283 293 300 265 90 46 103 88 38 45 21 19 65 64 72 70 43
345 343 340 339 336 331 329 327 324 320 314 311 307 300 292 280 272 262 252 254 242 238 178 110 86 81 29 272 257 284 225 94 125 228 177 133 151 324 283 303 195 194 188 185 198 105 106 93 66 26 271 336 43 33 332 18 3 11 65 305 329 83 280 303 323 2 36 331 67 79 74 240 263 275 295 49 76 115 92 64 34 40 27 3 43 89 81 71
346 344 342 338 333 332 329 328 325 321 321 319 317 313 302 277 264 246 234 219 223 153 145 19 11 105 96 317 185 99 75 348 296 213 213 141 147 202 225 28 340 53 127 285 82 139 36 94 70 199 238 3 52 89 31 29 342 2 85 263 315 10 270 346 349 346 282 199 6 107 220 329 324 297 298 349 98 105 114 96 78 56 45 47 47 73 101 99
343 345 343 337 335 330 330 329 327 326 324 323 325 335 327 320 185 127 139 136 92 131 109 159 98 95 23 239 300 3 289 261 266 7 141 202 161 186 99 321 335 17 12 44 29 112 346 86 318 42 33 109 142 91 61 20 337 328 9 117 218 250 321 322 306 29 20 91 266 3 129 197 221 301 298 343 69 116 114 128 125 121 101 91 98 107 106 103
345 343 342 337 332 333 330 331 329 328 327 324 328 300 238 94 119 98 61 51 76 111 253 218 122 21 293 349 307 258 203 294 332 287 307 266 147 115 129 78 77 67 36 28 352 95 307 205 37 195 9 354 26 42 104 220 179 236 314 7 326 303 212 255 348 268 26 6 163 347 88 266 171 270 286 341 358 58 115 124 135 136 128 123 118 108 99 89
341 338 337 337 332 332 332 331 329 330 331 322 335 79 91 118 128 38 96 122 54 353 22 297 84 124 206 220 278 307 282 220 234 138 245 100 108 109 75 95 68 58 357 50 269 70 357 63 27 36 290 313 240 150 163 210 163 191 171 185 176 288 300 265 247 274 95 340 339 164 199 266 44 266 246 174 100 146 125 100 104 108 111 118 120 98 82 79
342 342 340 334 334 331 332 331 328 329 343 343 30 34 15 12 3 344 339 355 231 206 226 217 204 230 307 279 264 253 289 21 342 277 23 289 110 142 34 59 24 57 107 215 304 40 125 112 211 224 227 224 222 186 193 179 155 127 111 123 245 208 274 286 276 256 81 63 261 263 216 3 25 244 235 191 117 127 139 141 156 165 152 150 124 98 89 85
339 339 337 332 332 333 331 331 328 329 339 26 329 63 70 167 35 315 301 260 258 230 231 238 198 200 216 244 329 34 27 319 89 278 231 89 108 120 251 47 29 261 292 202 179 311 70 2 268 223 228 224 217 206 141 107 109 150 99 177 284 173 251 243 259 344 311 133 276 9 354 53 319 290 234 255 153 176 165 152 178 168 169 154 128 116 111 120
338 337 335 334 329 330 331 329 327 327 330 221 65 96 133 177 181 228 83 314 305 224 217 241 290 267 300 270 149 119 84 344 324 293 290 144 96 142 291 101 133 187 297 322 20 20 28 215 250 238 225 207 163 160 172 179 168 109 199 203 315 270 242 290 275 318 300 77 266 17 252 12 327 306 193 192 225 246 190 171 177 165 164 157 136 133 135 123
338 338 336 334 331 327 331 325 325 326 348 39 31 80 45 298 353 264 107 214 283 255 214 225 234 238 278 286 209 105 113 198 249 300 227 117 56 194 145 96 117 160 15 67 212 250 312 283 242 256 153 181 255 139 136 93 74 149 90 88 219 233 133 305 288 339 359 105 277 181 200 327 330 8 88 309 274 287 318 47 30 352 165 156 159 159 142 135
336 336 333 331 333 329 324 327 311 327 45 172 155 148 149 324 38 45 78 255 297 313 208 216 183 180 219 173 210 137 159 250 128 276 277 125 158 176 107 146 111 71 237 183 160 163 219 245 239 130 162 171 226 150 139 148 235 311 159 181 236 168 232 156 256 322 290 15 91 76 43 1 353 105 202 301 3 1 355 27 18 16 42 50 110 118 130 139
333 335 334 330 333 330 322 321 39 350 272 109 252 255 295 327 354 167 121 332 10 287 251 290 169 218 231 353 94 159 228 285 212 223 201 117 141 74 223 199 116 234 204 195 102 183 282 268 120 80 65 81 132 125 185 143 214 315 222 186 195 186 162 264 348 42 21 344 342 79 26 314 298 306 271 270 71 196 13 91 336 19 80 116 139 118 48 51
331 331 334 332 330 334 314 2 346 314 354 359 123 267 316 321 136 131 95 79 320 267 340 329 201 359 51 178 81 149 74 276 226 217 166 202 140 141 73 45 124 240 205 145 177 190 209 323 80 211 122 100 74 168 227 164 173 134 263 184 182 153 111 127 77 70 17 175 284 11 146 255 330 179 194 221 208 201 5 61 299 216 184 187 185 153 112 88
328 329 331 331 333 339 8 334 305 297 9 328 287 293 299 337 143 90 22 349 28 282 40 246 56 273 230 286 136 94 49 269 295 55 87 262 160 350 123 253 6 317 157 154 45 256 164 286 58 47 81 80 99 248 223 144 126 219 235 135 123 115 138 180 125 137 213 259 307 34 108 188 287 262 239 267 155 197 227 239 235 226 212 213 210 195 179 149
325 327 327 329 328 338 202 323 349 1 235 250 313 333 341 126 109 49 78 70 327 295 29 317 199 276 63 303 116 133 204 257 25 296 62 252 105 358 88 200 179 198 177 82 214 259 162 340 84 83 67 115 192 210 179 150 136 220 185 133 152 165 190 143 107 127 213 37 286 338 323 82 251 265 326 145 149 222 226 213 216 217 227 218 211 208 206 207
323 326 325 325 326 323 181 173 129 239 255 292 308 330 349 70 92 104 112 102 244 352 216 57 261 26 329 354 70 355 335 14 177 254 312 60 35 144 88 233 170 163 292 148 196 283 286 196 210 145 140 224 233 244 161 168 169 281 116 72 70 64 61 102 111 106 349 63 273 276 191 210 277 296 161 342 273 224 213 211 218 221 219 214 209 211 207 204
322 325 326 326 333 92 34 47 223 246 290 297 308 307 59 51 38 42 21 214 352 338 347 257 56 288 30 57 304 351 247 297 201 338 33 148 327 36 53 139 122 107 193 360 223 225 258 304 171 130 203 210 166 292 166 162 67 112 90 70 18 39 26 27 59 100 77 338 255 241 280 163 276 242 182 163 213 203 188 171 244 223 226 229 220 207 198 196
324 324 326 329 301 242 129 328 254 250 275 304 307 51 70 43 116 100 36 245 300 287 355 16 353 9 13 29 322 300 182 304 308 129 73 334 330 32 36 346 38 56 31 355 289 311 344 352 117 244 108 116 112 74 32 63 84 119 85 128 86 323 9 35 342 38 125 271 261 279 207 134 180 290 259 235 285 179 180 191 193 202 210 213 208 211 212 207
326 325 328 328 209 345 166 233 305 312 314 324 48 59 72 263 15 52 219 283 114 301 16 313 347 359 336 346 155 311 296 337 335 102 173 187 144 155 180 178 176 28 339 337 250 352 333 207 267 318 223 150 98 92 282 26 28 90 82 50 131 257 30 280 10 281 209 206 230 317 207 40 229 220 220 224 241 262 214 205 194 194 204 206 210 208 205 206
327 326 330 5 152 178 253 265 325 328 335 12 67 48 59 91 264 279 342 333 110 235 303 311 309 356 338 22 356 315 268 70 295 84 116 24 141 287 268 186 195 175 238 257 319 16 280 292 348 303 357 42 123 135 222 46 350 114 142 136 93 89 51 254 279 240 306 296 265 298 274 245 247 291 216 227 253 235 237 211 206 205 192 196 198 195 201 213
324 325 337 222 193 218 247 282 296 336 350 36 74 29 44 51 255 242 299 283 256 311 290 357 334 23 17 39 323 340 359 264 61 327 51 315 43 327 326 348 132 22 85 147 213 187 40 341 301 41 135 323 85 154 180 175 167 210 138 147 184 145 158 238 198 218 218 208 265 282 53 230 109 234 188 224 249 267 243 227 187 191 217 204 184 193 210 221
319 308 268 311 266 247 243 260 272 325 58 66 53 84 114 251 200 342 300 308 304 331 315 288 240 90 293 261 244 293 246 291 8 23 22 68 300 157 275 298 341 105 135 132 251 78 201 215 255 256 248 15 149 176 129 103 63 187 160 91 94 232 146 215 208 162 226 294 347 229 211 186 177 241 269 280 279 333 190 170 150 167 178 178 189 204 212 216
325 337 13 359 8 348 18 218 73 66 80 53 76 45 93 197 29 213 5 211 305 17 306 360 59 50 335 314 282 4 314 23 347 47 6 71 193 2 255 223 296 156 152 157 200 163 19 306 291 316 16 150 151 175 249 138 196 249 115 203 214 159 104 88 80 30 94 50 256 168 322 305 298 329 350 335 47 356 105 155 162 169 177 180 202 210 213 214
2 334 28 323 7 342 347 68 55 56 57 87 92 65 206 300 211 192 290 330 267 16 54 58 333 54 0 327 298 352 329 15 360 14 303 260 351 359 337 308 200 294 180 133 293 185 139 239 305 37 264 328 313 194 275 18 145 90 155 240 182 129 114 130 227 357 62 175 259 55 221 292 32 273 321 21 98 263 186 179 184 170 169 195 211 211 211 213
330 335 262 335 340 332 326 31 19 37 73 79 74 264 239 83 317 174 285 8 1 26 82 67 286 83 349 45 336 350 325 70 323 29 311 344 181 21 341 337 319 49 334 7 124 299 107 315 298 267 239 281 342 35 1 338 22 151 199 190 117 260 225 327 88 302 247 268 275 312 291 265 192 247 319 252 224 225 214 190 167 192 201 210 212 217 221 228
246 42 26 304 342 340 325 350 62 60 59 55 308 61 275 222 289 44 318 176 105 110 76 337 207 327 71 43 262 306 344 8 353 47 46 4 46 349 23 325 305 351 8 332 48 225 33 166 295 304 276 294 337 67 236 293 335 8 85 78 6 109 166 127 194 173 121 249 55 289 31 244 214 221 197 216 212 209 187 188 205 203 203 204 209 211 214 218
20 40 334 304 340 344 334 70 52 42 64 68 221 214 230 77 305 296 2 149 2 62 303 45 353 329 353 248 157 17 299 360 317 246 136 275 325 328 8 355 351 324 356 17 111 53 358 78 214 277 299 343 323 353 220 167 221 334 48 313 349 27 211 103 57 133 180 176 185 204 310 277 261 214 185 218 211 204 189 200 208 209 211 210 208 206 212 214
323 95 265 299 350 328 48 44 47 30 70 258 133 264 337 347 345 326 339 30 106 335 147 167 171 117 231 4 336 338 321 325 292 303 173 243 190 313 11 0 312 311 338 11 51 360 81 85 205 313 356 316 248 238 202 184 181 184 167 208 175 124 155 195 259 36 98 126 217 139 244 266 269 182 208 213 226 210 214 206 205 209 208 208 211 217 211 215
64 47 307 324 344 8 80 45 7 114 88 54 20 7 332 32 54 338 348 345 74 29 33 101 19 103 40 295 230 323 16 310 285 348 305 149 315 140 310 350 348 308 12 5 169 256 145 161 96 262 216 231 250 279 238 231 196 200 146 258 171 136 108 106 175 265 26 255 110 152 100 273 242 214 225 240 238 228 221 212 228 221 213 210 216 217 220 219
37 210 262 304 343 59 66 67 316 32 16 267 299 226 283 359 121 274 36 358 26 71 17 56 207 52 215 147 333 346 354 279 187 229 292 18 26 60 358 6 352 336 81 334 23 297 142 53 337 297 306 300 306 274 25 70 117 76 49 72 75 207 175 172 172 180 148 133 130 1 224 249 288 254 242 255 248 247 252 212 217 217 214 218 218 222 226 231
207 279 326 306 350 69 73 82 352 337 324 321 31 292 301 195 48 358 26 330 70 346 74 322 3 138 222 88 122 279 337 357 358 16 356 28 272 68 28 19 359 355 19 344 353 332 8 297 125 346 2 335 340 347 1 341 55 91 217 286 87 80 68 135 102 78 195 215 171 141 241 279 273 323 310 282 255 236 235 234 212 218 220 219 221 227 227 228
236 288 253 304 347 45 99 175 146 14 350 347 337 1 348 358 328 234 161 337 347 139 76 337 215 228 18 273 250 256 288 163 285 329 36 232 256 347 230 51 336 307 15 11 26 357 330 201 124 150 221 263 273 293 275 280 257 264 212 300 275 110 123 77 269 36 180 278 138 168 247 255 275 310 308 290 272 269 254 237 228 223 225 222 227 226 222 219
25 45 314 346 5 30 65 41 94 122 57 3 21 302 62 343 331 349 88 20 89 13 79 253 354 82 46 33 5 356 308 163 161 276 353 297 309 260 321 336 213 244 46 34 16 154 242 2 182 183 173 213 213 208 233 109 326 300 279 286 254 343 209 111 102 108 202 210 198 234 181 276 292 290 289 276 256 246 257 243 225 227 231 231 226 223 216 213
144 68 344 340 339 41 98 27 49 44 66 149 56 317 355 320 272 334 29 112 6 62 359 61 312 16 306 46 310 307 257 309 258 268 225 235 237 278 321 298 263 261 358 89 331 102 44 315 258 217 228 233 218 221 234 176 241 251 272 283 267 186 187 158 176 225 192 115 265 208 193 203 254 263 263 266 255 252 260 259 252 253 241 223 218 215 214 217
62 249 110 212 119 293 30 334 45 41 317 155 227 10 4 10 14 24 325 55 251 32 58 330 34 33 1 259 216 294 316 304 290 251 332 285 342 321 341 328 280 306 290 120 148 125 135 209 260 154 260 255 263 269 261 279 235 235 225 241 270 267 149 200 224 222 152 191 247 248 196 208 249 242 252 252 245 225 232 241 236 240 245 218 190 196 204 210
117 215 173 331 80 254 160 283 27 62 25 159 178 46 29 46 10 329 195 319 19 350 43 303 333 328 321 333 158 258 275 336 310 300 263 286 322 345 319 331 295 22 27 13 348 147 91 239 226 182 248 288 281 259 236 217 258 252 230 234 245 253 240 213 233 230 199 224 235 248 253 247 247 257 254 256 244 220 242 255 279 241 222 199 200 202 202 199
352 69 305 355 81 150 265 359 98 65 77 337 84 336 117 34 2 340 342 72 330 323 359 65 314 319 316 322 265 239 256 251 274 291 312 336 323 190 251 222 277 343 30 340 329 357 136 276 173 205 352 285 265 267 260 217 207 277 271 251 247 252 262 237 228 251 214 262 262 260 264 276 268 236 253 265 265 239 273 258 239 246 203 184 196 209 211 207
247 155 135 94 31 284 315 19 56 107 69 344 79 292 81 339 73 238 260 245 155 302 32 332 299 310 295 273 266 256 254 292 294 270 277 286 278 204 345 288 105 317 322 327 282 308 163 269 21 53 292 280 279 237 238 37 304 266 273 268 255 245 254 230 193 210 179 222 222 207 245 256 266 289 269 286 267 204 231 242 250 246 220 197 204 222 222 218
74 295 74 103 213 320 348 328 34 53 39 230 155 237 138 258 238 280 359 282 132 134 120 305 313 316 285 312 284 308 339 307 282 283 277 266 249 247 235 249 250 251 243 210 231 264 172 191 299 19 270 243 274 131 102 286 316 277 257 250 241 237 230 249 261 209 213 166 172 184 238 220 231 315 350 308 263 258 270 244 234 242 235 208 210 216 217 212